TimeMDT,TemperatureF,Dew PointF,Humidity,Sea Level PressureIn,VisibilityMPH,Wind Direction,Wind SpeedMPH,Gust SpeedMPH,PrecipitationIn,Events,Conditions,WindDirDegrees,DateUTC
12:53 AM,25.0,19.0,78,30.20,10.0,Calm,Calm,-,N/A,,Clear,0,2013-03-11 06:53:00
1:53 AM,24.1,18.0,77,30.19,10.0,Calm,Calm,-,N/A,,Clear,0,2013-03-11 07:53:00
2:53 AM,21.9,18.0,85,30.19,10.0,Calm,Calm,-,N/A,,Clear,0,2013-03-11 08:53:00
3:53 AM,19.9,16.0,85,30.18,10.0,Calm,Calm,-,N/A,,Clear,0,2013-03-11 09:53:00
4:53 AM,19.9,17.1,89,30.16,10.0,Calm,Calm,-,N/A,,Clear,0,2013-03-11 10:53:00
5:53 AM,21.0,16.0,81,30.15,10.0,Calm,Calm,-,N/A,,Clear,0,2013-03-11 11:53:00
7:53 AM,18.0,15.1,88,30.21,10.0,Calm,Calm,-,N/A,,Clear,0,2013-03-11 13:53:00
8:53 AM,27.0,19.9,75,30.20,10.0,NNW,5.8,-,N/A,,Clear,340,2013-03-11 14:53:00
9:53 AM,37.0,19.0,48,30.17,10.0,North,6.9,-,N/A,,Clear,360,2013-03-11 15:53:00
10:53 AM,43.0,19.9,40,30.16,10.0,North,4.6,-,N/A,,Clear,350,2013-03-11 16:53:00
11:53 AM,46.0,19.0,34,30.13,10.0,Variable,3.5,-,N/A,,Clear,0,2013-03-11 17:53:00
12:53 PM,51.1,18.0,27,30.10,10.0,WSW,4.6,-,N/A,,Clear,250,2013-03-11 18:53:00
1:53 PM,53.1,15.1,22,30.06,10.0,WSW,8.1,-,N/A,,Clear,240,2013-03-11 19:53:00
2:53 PM,54.0,14.0,21,30.06,10.0,WNW,12.7,17.3,N/A,,Clear,290,2013-03-11 20:53:00
3:53 PM,55.0,12.0,18,30.05,10.0,WNW,11.5,19.6,N/A,,Clear,300,2013-03-11 21:53:00
4:53 PM,54.0,10.9,18,30.05,10.0,West,8.1,-,N/A,,Clear,270,2013-03-11 22:53:00
5:53 PM,53.1,10.0,18,30.05,10.0,WNW,13.8,-,N/A,,Clear,290,2013-03-11 23:53:00
6:53 PM,48.9,16.0,27,30.09,10.0,WNW,6.9,-,N/A,,Clear,290,2013-03-12 00:53:00
7:53 PM,44.1,18.0,35,30.12,10.0,Calm,Calm,-,N/A,,Clear,0,2013-03-12 01:53:00
8:53 PM,37.0,19.9,50,30.13,10.0,West,3.5,-,N/A,,Clear,270,2013-03-12 02:53:00
9:53 PM,35.1,21.9,59,30.10,10.0,Calm,Calm,-,N/A,,Clear,0,2013-03-12 03:53:00
10:53 PM,36.0,19.9,52,30.08,10.0,North,6.9,-,N/A,,Clear,10,2013-03-12 04:53:00
11:53 PM,34.0,19.0,54,30.08,10.0,North,6.9,-,N/A,,Clear,10,2013-03-12 05:53:00